Location: Guayaquil
(2.1667°S, 79.9000°W)
Time: 10:00:50
(UTC-05:00)

ISS - Visible Passes

Search period start: 09 December 2021 00:00
Search period end: 19 December 2021 00:00
Orbit: 417 x 423 km, 51.6° (Epoch: 09 December)

Date Brightness Start Highest point End Pass type
(mag) Time Alt. Az. Time Alt. Az. Time Alt. Az.
10 Dec -1.9 20:04:53 10° WNW 20:07:54 31° SW 20:08:30 28° SSW visible
11 Dec -3.6 19:17:12 10° NW 19:20:33 77° SW 19:23:55 10° SSE visible
13 Dec -0.3 19:20:35 10° W 19:22:28 14° SW 19:24:22 10° SSW visible
14 Dec -0.5 05:18:48 10° S 05:21:15 19° SE 05:23:41 10° E visible
16 Dec -3.9 05:19:48 10° SW 05:23:08 74° NW 05:26:28 10° NNE visible
17 Dec -2.6 04:32:48 11° SSW 04:35:47 42° SE 04:38:58 10° NE visible
18 Dec -1.6 05:26:07 12° NNW 05:26:07 12° NNW 05:26:42 10° NNW visible
